Weather History for KMSS - December, 2012

Change the Weather History Date:

Friday, December 7, 2012

  Actual Average Record
Temperature  
Mean Temperature 35 °F 26 °F  
Max Temperature 44 °F 34 °F 65 °F (1998)
Min Temperature 26 °F 18 °F -7 °F (2000)
Degree Days  
Heating Degree Days 30 39  
Month to date heating degree days 207 264  
Since 1 July heating degree days 1814 2033  
Cooling Degree Days 0 0  
Month to date cooling degree days 0  
Year to date cooling degree days 363  
Moisture  
Dew Point 27 °F    
Average Humidity 69    
Maximum Humidity 85    
Minimum Humidity 53    
Precipitation  
Precipitation T in 0.08 in 0.94 in (1966)
Month to date precipitation 0.92 0.60  
Year to date precipitation 27.40 33.13  
Sea Level Pressure  
Sea Level Pressure 30.03 in    
Wind  
Wind Speed 2 mph (SW)    
Max Wind Speed 12 mph    
Max Gust Speed 14 mph    
Visibility 10 miles    
Events Rain    
T = Trace of Precipitation, MM = Missing Value Source: NWS Daily Summary

Daily Weather History Graph

Daily Weather History Graph

Search for Another Location

Airport or City:

Trip Planner

Search our weather history database for the weather conditions in past years. The results will help you decide how hot, cold, wet, or windy it might be!

Date:

Astronomy

Dec. 07, 2012 Rise Set
Actual Time 7:24 AM EST 4:18 PM EST
Civil Twilight 6:50 AM EST 4:51 PM EST
Nautical Twilight 6:13 AM EST 5:28 PM EST
Astronomical Twilight 5:38 AM EST 6:03 PM EST
Moon 12:25 AM EST (12/7) 12:27 PM EST (12/7)
Length of Visible Light 10h 00m
Length of Day
8h 53m
Last Quarter, 39% of the Moon is Illuminated
Dec 7
Last Quarter
Dec 13
New
Dec 20
First Quarter
Dec 28
Full
Jan 4
Last Quarter

Hourly Weather History & Observations

Time (EST) Temp. Windchill Dew Point Humidity Pressure Visibility Wind Dir Wind Speed Gust Speed Precip Events Conditions
12:53 AM 27.0 °F - 23.0 °F 85% 30.10 in 10.0 mi Calm Calm - N/A   Clear
1:53 AM 27.0 °F - 21.9 °F 81% 30.09 in 10.0 mi Calm Calm - N/A   Clear
2:53 AM 27.0 °F 23.0 °F 21.9 °F 81% 30.07 in 10.0 mi NE 3.5 mph - N/A   Clear
3:53 AM 27.0 °F - 21.9 °F 81% 30.06 in 10.0 mi Calm Calm - N/A   Clear
4:53 AM 27.0 °F 21.6 °F 23.0 °F 85% 30.06 in 10.0 mi ENE 4.6 mph - N/A   Clear
5:53 AM 26.1 °F - 23.0 °F 88% 30.06 in 10.0 mi Calm Calm - N/A   Clear
6:53 AM 26.6 °F - 23.0 °F 86% 30.03 in 10.0 mi Calm Calm - N/A   Clear
7:53 AM 26.1 °F - 23.0 °F 88% 30.05 in 10.0 mi Calm Calm - N/A   Clear
8:53 AM 28.0 °F - 24.1 °F 85% 30.04 in 10.0 mi Calm Calm - N/A   Clear
9:53 AM 32.0 °F - 25.0 °F 75% 30.04 in 10.0 mi Calm Calm - N/A   Overcast
10:53 AM 35.1 °F - 26.1 °F 70% 30.04 in 10.0 mi Calm Calm - N/A   Overcast
11:53 AM 39.9 °F - 27.0 °F 60% 30.01 in 10.0 mi Calm Calm - N/A   Partly Cloudy
12:53 PM 43.0 °F 40.3 °F 27.0 °F 53% 30.00 in 10.0 mi Variable 4.6 mph - N/A   Partly Cloudy
1:53 PM 43.0 °F 39.5 °F 26.1 °F 51% 29.99 in 10.0 mi SW 5.8 mph - N/A   Overcast
2:53 PM 43.0 °F 39.5 °F 27.0 °F 53% 30.00 in 10.0 mi SW 5.8 mph - N/A   Overcast
3:53 PM 42.1 °F - 27.0 °F 55% 30.00 in 10.0 mi Calm Calm - N/A   Overcast
4:53 PM 39.9 °F 35.1 °F 28.0 °F 63% 30.01 in 10.0 mi SSW 6.9 mph - N/A   Overcast
5:53 PM 39.9 °F 35.8 °F 28.9 °F 65% 30.01 in 10.0 mi SSW 5.8 mph - N/A   Overcast
6:53 PM 39.9 °F 35.8 °F 30.9 °F 70% 30.02 in 10.0 mi SW 5.8 mph - 0.00 in Rain Light Rain
7:53 PM 39.0 °F 36.8 °F 33.1 °F 79% 30.03 in 10.0 mi West 3.5 mph - 0.00 in Rain Light Rain
8:53 PM 37.9 °F - 34.0 °F 86% 30.03 in 10.0 mi Calm Calm - 0.00 in   Overcast
9:53 PM 36.0 °F - 34.0 °F 93% 30.03 in 9.0 mi Calm Calm - 0.00 in Rain Light Rain
10:53 PM 36.0 °F - 33.1 °F 89% 30.03 in 10.0 mi Calm Calm - 0.00 in   Overcast
11:53 PM 36.0 °F - 34.0 °F 93% 30.01 in 9.0 mi Calm Calm - 0.00 in   Overcast